Location: Sevilla
(37.3933°N, 5.9839°W)
Time: 08:59:27
(UTC+02:00)

Hubble Space Telescope - Visible Passes

Search period start: 18 May 2024 00:00
Search period end: 28 May 2024 00:00
Orbit: 512 x 516 km, 28.5° (Epoch: 17 May)

Date Brightness Start Highest point End Pass type
(mag) Time Alt. Az. Time Alt. Az. Time Alt. Az.
18 May 2.1 05:35:24 21° S 05:35:24 21° S 05:38:03 10° SE visible
19 May 2.7 05:17:59 16° SSE 05:17:59 16° SSE 05:19:19 10° SE visible
20 May 2.8 06:36:28 10° SW 06:37:31 11° SSW 06:38:34 10° S visible
26 May 2.7 23:23:02 10° SW 23:24:07 15° SSW 23:24:07 15° SSW visible
27 May 2.2 23:04:05 10° SW 23:06:48 20° S 23:06:48 20° S visible
